Regional Weather Roundup
Issued by NWS

Home | Current Version | Previous Version | Text Only | Print | Product List | Glossary Off
Versions: 1 2 3 4 5 6 7 8 9 10 11 12 13 14 15 16 17 18 19 20 21 22 23 24 25 26 27 28 29 30 31 32 33 34 35 36 37 38 39 40 41 42 43 44 45 46 47 48 49 50

000
ASUS43 KOAX 250210
RWRNE

WEATHER ROUNDUP FOR NEBRASKA
NATIONAL WEATHER SERVICE OMAHA NE
800 PM CST FRI NOV 24 2017

NOTES: SATELLITE DATA IS BEING USED TO AUGMENT CLOUD COVER ABOVE
       12000 FEET.
       "FAIR" INDICATES FEW OR NO CLOUDS BELOW 12,000 FEET WITH NO
       SIGNIFICANT WEATHER AND/OR OBSTRUCTIONS TO VISIBILITY.


NEZ001>004-019>022-054>056-250300-
NEBRASKA PANHANDLE

CITY           SKY/WX    TMP DP  RH WIND       PRES   REMARKS
SCOTTSBLUFF    CLEAR     38  20  48 W5        29.99R WCI  34
ALLIANCE       CLEAR     31  23  72 CALM      29.97R
CHADRON        CLEAR     35  27  72 CALM      29.98R
GORDON         FAIR      32  24  72 W5        29.96R WCI  27
KIMBALL        CLEAR     32  27  81 SW6       30.01S WCI  27
SIDNEY         CLEAR     31  22  69 W5        30.00R WCI  26
$$

NEZ057>060-069>072-079>082-250300-
SOUTHWEST NEBRASKA

CITY           SKY/WX    TMP DP  RH WIND       PRES   REMARKS
NORTH PLATTE   CLEAR     43  27  53 NW7       29.96R
IMPERIAL       CLEAR     46  31  55 CALM      30.00R
LEXINGTON      PTCLDY    47  31  54 N9        29.92R
MCCOOK         CLOUDY    47  34  60 N6        29.96R
OGALLALA       CLEAR     44  29  54 CALM      29.98R
$$

NEZ005>010-023>029-035>040-094-250300-
NORTH CENTRAL NEBRASKA

CITY           SKY/WX    TMP DP  RH WIND       PRES   REMARKS
VALENTINE      CLEAR     36  27  69 W9        29.93R WCI  29
AINSWORTH      CLEAR     41  30  64 NW8       29.91R
BROKEN BOW     CLEAR     41  28  60 N6        29.92R
O`NEILL        CLEAR     44  34  69 NW8       29.90R
ORD            CLEAR     39  29  67 W8        29.91R WCI  33
THEDFORD       CLEAR     38  27  63 W6        29.95R WCI  34
$$

NEZ041-046>049-061>064-073>077-083>087-250300-
SOUTH CENTRAL NEBRASKA

CITY           SKY/WX    TMP DP  RH WIND       PRES   REMARKS
GRAND ISLAND   MOCLDY    50  34  54 NW10      29.90R
AURORA         PTCLDY    48  33  55 N10       29.89R
HASTINGS       PTCLDY    49  31  49 N8        29.90R
HEBRON         PTCLDY    56  35  45 N8        29.89R
HOLDREGE       MOCLDY    50  34  54 N6        29.92R
KEARNEY        PTCLDY    50  30  46 N9        29.92R
YORK           PTCLDY    48  34  57 N5        29.89R
$$

NEZ011>018-030>034-042>045-250300-
NORTHEAST NEBRASKA

CITY           SKY/WX    TMP DP  RH WIND       PRES   REMARKS
NORFOLK        CLEAR     45  35  68 NW8       29.86R
ALBION         CLEAR     43  34  70 NW3       29.90R
BLAIR          CLEAR     52  37  56 N15G23    29.83R
COLUMBUS       CLEAR     47  35  63 N9        29.88R
FREMONT        CLEAR     49  34  55 NW7       29.86R
TEKAMAH        CLEAR     48  34  58 NW12      29.84R
WAYNE          CLEAR     41  32  69 NW7       29.87R
$$

NEZ050>053-065>068-078-088>093-250300-
SOUTHEAST NEBRASKA

CITY           SKY/WX    TMP DP  RH WIND       PRES   REMARKS
LINCOLN        PTCLDY    53  35  50 N13       29.88R
OMAHA EPPLEY   PTCLDY    52  37  56 N12       29.84R
BEATRICE       CLOUDY    54  36  50 N14       29.86R
FALLS CITY     CLOUDY    59  36  42 N14G23    29.82R
NEBRASKA CITY  PTCLDY    55  38  53 N16G22    29.84R
PLATTSMOUTH    CLOUDY    54  38  54 NW18G24   29.84R
$$

NEZ044-045-051>053-067-250300-
OMAHA AREA

CITY           SKY/WX    TMP DP  RH WIND       PRES   REMARKS
OMAHA EPPLEY   PTCLDY    52  37  56 N12       29.84R
BLAIR          CLEAR     52  37  56 N15G23    29.83R
FREMONT        CLEAR     49  34  55 NW7       29.86R
MILLARD        PTCLDY    55  38  53 NW7       29.85R
OFFUTT AFB     CLEAR     55  36  50 N13G24    29.84R
PLATTSMOUTH    CLOUDY    54  38  54 NW18G24   29.84R
WAHOO          FAIR      49  33  54 NW9       29.86R
$$




USA.gov is the U.S. government's official web portal to all federal, state and local government web resources and services.